Time,TemperatureF,DewpointF,PressureIn,WindDirection,WindDirectionDegrees,WindSpeedMPH,WindSpeedGustMPH,Humidity,HourlyPrecipIn,Conditions,Clouds,dailyrainin,SolarRadiationWatts/m^2,SoftwareType,DateUTC
2013-08-21 00:02:00,64.0,29.0,-100.00,East,86,3.0,6.0,27,0.00,,,0.00,0.000000,,2013-08-21 07:02:00,
2013-08-21 00:42:00,64.0,29.0,-100.00,East,86,3.0,6.0,27,0.00,,,0.00,0.000000,,2013-08-21 07:42:00,
2013-08-21 00:53:00,64.0,29.0,-100.00,East,86,3.0,6.0,27,0.00,,,0.00,0.000000,,2013-08-21 07:53:00,
2013-08-21 01:22:00,62.0,34.0,-100.00,East,86,3.0,5.0,35,0.00,,,0.00,0.000000,,2013-08-21 08:22:00,
2013-08-21 01:32:00,62.0,34.0,-100.00,East,86,3.0,5.0,35,0.00,,,0.00,0.000000,,2013-08-21 08:32:00,
2013-08-21 01:43:00,62.0,34.0,-100.00,East,86,3.0,5.0,35,0.00,,,0.00,0.000000,,2013-08-21 08:43:00,
2013-08-21 01:52:00,62.0,34.0,-100.00,East,86,3.0,5.0,35,0.00,,,0.00,0.000000,,2013-08-21 08:52:00,
2013-08-21 02:01:00,62.0,34.0,-100.00,East,86,3.0,5.0,35,0.00,,,0.00,0.000000,,2013-08-21 09:01:00,
2013-08-21 02:02:00,62.0,39.0,-100.00,ENE,76,4.0,6.0,42,0.00,,,0.00,0.000000,,2013-08-21 09:02:00,
2013-08-21 02:43:00,62.0,39.0,-100.00,ENE,76,4.0,6.0,42,0.00,,,0.00,0.000000,,2013-08-21 09:43:00,
2013-08-21 02:53:00,62.0,39.0,-100.00,ENE,76,4.0,6.0,42,0.00,,,0.00,0.000000,,2013-08-21 09:53:00,
2013-08-21 03:43:00,61.0,39.0,-100.00,ENE,77,4.0,6.0,44,-99.99,,,0.00,0.000000,,2013-08-21 10:43:00,
2013-08-21 05:02:00,55.0,35.0,-100.00,WSW,250,3.0,6.0,47,-99.99,,,0.00,0.000000,,2013-08-21 12:02:00,
2013-08-21 05:42:00,55.0,35.0,-100.00,WSW,250,3.0,6.0,47,-99.99,,,0.00,0.000000,,2013-08-21 12:42:00,
2013-08-21 05:52:00,55.0,35.0,-100.00,WSW,250,3.0,6.0,47,-99.99,,,0.00,0.000000,,2013-08-21 12:52:00,
2013-08-21 06:42:00,56.0,39.0,-100.00,WSW,240,2.0,4.0,52,-99.99,,,0.00,,,2013-08-21 13:42:00,
2013-08-21 08:43:00,63.0,38.0,-100.00,West,271,3.0,4.0,39,-99.99,,,0.00,128.000000,,2013-08-21 15:43:00,
2013-08-21 09:02:00,65.0,39.0,-100.00,West,279,2.0,5.0,38,0.00,,,0.00,157.000000,,2013-08-21 16:02:00,
2013-08-21 09:43:00,65.0,39.0,-100.00,West,279,2.0,5.0,38,0.00,,,0.00,157.000000,,2013-08-21 16:43:00,
2013-08-21 09:53:00,65.0,39.0,-100.00,West,279,2.0,5.0,38,0.00,,,0.00,157.000000,,2013-08-21 16:53:00,
2013-08-21 10:02:00,68.0,41.0,-100.00,North,10,5.0,10.0,38,0.00,,,0.00,387.000000,,2013-08-21 17:02:00,
2013-08-21 10:23:00,68.0,41.0,-100.00,North,10,5.0,10.0,38,0.00,,,0.00,387.000000,,2013-08-21 17:23:00,
2013-08-21 10:34:00,68.0,41.0,-100.00,North,10,5.0,10.0,38,0.00,,,0.00,387.000000,,2013-08-21 17:34:00,
2013-08-21 10:43:00,68.0,41.0,-100.00,North,10,5.0,10.0,38,0.00,,,0.00,387.000000,,2013-08-21 17:43:00,
2013-08-21 10:53:00,68.0,41.0,-100.00,North,10,5.0,10.0,38,0.00,,,0.00,387.000000,,2013-08-21 17:53:00,
2013-08-21 11:42:00,73.0,38.0,-100.00,NNE,17,4.0,9.0,28,0.00,,,0.00,601.000000,,2013-08-21 18:42:00,
2013-08-21 11:52:00,73.0,38.0,-100.00,NNE,17,4.0,9.0,28,0.00,,,0.00,601.000000,,2013-08-21 18:52:00,
2013-08-21 12:01:00,73.0,38.0,-100.00,NNE,17,4.0,9.0,28,0.00,,,0.00,601.000000,,2013-08-21 19:01:00,
2013-08-21 12:02:00,77.0,40.0,-100.00,NNE,12,6.0,10.0,27,0.00,,,0.00,793.000000,,2013-08-21 19:02:00,
2013-08-21 12:42:00,77.0,40.0,-100.00,NNE,12,6.0,10.0,27,0.00,,,0.00,793.000000,,2013-08-21 19:42:00,
2013-08-21 12:52:00,77.0,40.0,-100.00,NNE,12,6.0,10.0,27,0.00,,,0.00,793.000000,,2013-08-21 19:52:00,
2013-08-21 13:02:00,79.0,41.0,-100.00,North,3,7.0,13.0,26,0.00,,,0.00,868.000000,,2013-08-21 20:02:00,
2013-08-21 13:22:00,79.0,41.0,-100.00,North,3,7.0,13.0,26,0.00,,,0.00,868.000000,,2013-08-21 20:22:00,
2013-08-21 13:32:00,79.0,41.0,-100.00,North,3,7.0,13.0,26,0.00,,,0.00,868.000000,,2013-08-21 20:32:00,
2013-08-21 13:42:00,79.0,41.0,-100.00,North,3,7.0,13.0,26,0.00,,,0.00,868.000000,,2013-08-21 20:42:00,
2013-08-21 13:52:00,79.0,41.0,-100.00,North,3,7.0,13.0,26,0.00,,,0.00,868.000000,,2013-08-21 20:52:00,
2013-08-21 14:02:00,84.0,39.0,-100.00,NNW,340,7.0,13.0,20,0.00,,,0.00,923.000000,,2013-08-21 21:02:00,
2013-08-21 14:44:00,84.0,39.0,-100.00,NNW,340,7.0,13.0,20,0.00,,,0.00,923.000000,,2013-08-21 21:44:00,
2013-08-21 14:54:00,84.0,39.0,-100.00,NNW,340,7.0,13.0,20,0.00,,,0.00,923.000000,,2013-08-21 21:54:00,
2013-08-21 15:02:00,86.0,33.0,-100.00,NNW,339,9.0,15.0,15,0.00,,,-99.99,747.000000,,2013-08-21 22:02:00,
2013-08-21 15:24:00,86.0,33.0,-100.00,NNW,339,9.0,15.0,15,0.00,,,-99.99,747.000000,,2013-08-21 22:24:00,
2013-08-21 15:34:00,86.0,33.0,-100.00,NNW,339,9.0,15.0,15,0.00,,,-99.99,747.000000,,2013-08-21 22:34:00,
2013-08-21 15:44:00,86.0,33.0,-100.00,NNW,339,9.0,15.0,15,0.00,,,-99.99,747.000000,,2013-08-21 22:44:00,
2013-08-21 15:53:00,86.0,33.0,-100.00,NNW,339,9.0,15.0,15,0.00,,,-99.99,747.000000,,2013-08-21 22:53:00,
2013-08-21 16:02:00,87.0,32.0,-100.00,NNW,340,10.0,17.0,14,0.00,,,0.00,732.000000,,2013-08-21 23:02:00,
2013-08-21 16:43:00,87.0,32.0,-100.00,NNW,340,10.0,17.0,14,0.00,,,0.00,732.000000,,2013-08-21 23:43:00,
2013-08-21 16:53:00,87.0,32.0,-100.00,NNW,340,10.0,17.0,14,0.00,,,0.00,732.000000,,2013-08-21 23:53:00,
2013-08-21 17:02:00,84.0,34.0,-100.00,North,353,11.0,18.0,17,0.00,,,0.00,392.000000,,2013-08-22 00:02:00,
2013-08-21 17:22:00,84.0,34.0,-100.00,North,353,11.0,18.0,17,0.00,,,0.00,392.000000,,2013-08-22 00:22:00,
2013-08-21 17:32:00,84.0,34.0,-100.00,North,353,11.0,18.0,17,0.00,,,0.00,392.000000,,2013-08-22 00:32:00,
2013-08-21 17:42:00,84.0,34.0,-100.00,North,353,11.0,18.0,17,0.00,,,0.00,392.000000,,2013-08-22 00:42:00,
2013-08-21 17:52:00,84.0,34.0,-100.00,North,353,11.0,18.0,17,0.00,,,0.00,392.000000,,2013-08-22 00:52:00,
2013-08-21 18:02:00,82.0,33.0,-100.00,North,356,10.0,17.0,17,0.00,,,0.00,260.000000,,2013-08-22 01:02:00,
2013-08-21 18:42:00,82.0,33.0,-100.00,North,356,10.0,17.0,17,0.00,,,0.00,260.000000,,2013-08-22 01:42:00,
2013-08-21 18:52:00,82.0,33.0,-100.00,North,356,10.0,17.0,17,0.00,,,0.00,260.000000,,2013-08-22 01:52:00,
2013-08-21 19:02:00,80.0,34.0,-100.00,North,358,9.0,16.0,19,0.00,,,0.00,163.000000,,2013-08-22 02:02:00,
2013-08-21 19:52:00,80.0,34.0,-100.00,North,358,9.0,16.0,19,0.00,,,0.00,163.000000,,2013-08-22 02:52:00,
2013-08-21 20:02:00,75.0,36.0,-100.00,North,1,7.0,15.0,24,0.00,,,0.00,46.000000,,2013-08-22 03:02:00,
2013-08-21 20:22:00,75.0,36.0,-100.00,North,1,7.0,15.0,24,0.00,,,0.00,46.000000,,2013-08-22 03:22:00,
2013-08-21 20:35:00,75.0,36.0,-100.00,North,1,7.0,15.0,24,0.00,,,0.00,46.000000,,2013-08-22 03:35:00,
2013-08-21 20:45:00,75.0,36.0,-100.00,North,1,7.0,15.0,24,0.00,,,0.00,46.000000,,2013-08-22 03:45:00,
2013-08-21 20:54:00,75.0,36.0,-100.00,North,1,7.0,15.0,24,0.00,,,0.00,46.000000,,2013-08-22 03:54:00,
2013-08-21 21:02:00,71.0,36.0,-100.00,NNE,22,5.0,11.0,28,0.00,,,0.00,2.000000,,2013-08-22 04:02:00,
2013-08-21 21:24:00,71.0,36.0,-100.00,NNE,22,5.0,11.0,28,0.00,,,0.00,2.000000,,2013-08-22 04:24:00,
2013-08-21 21:34:00,71.0,36.0,-100.00,NNE,22,5.0,11.0,28,0.00,,,0.00,2.000000,,2013-08-22 04:34:00,
2013-08-21 21:44:00,71.0,36.0,-100.00,NNE,22,5.0,11.0,28,0.00,,,0.00,2.000000,,2013-08-22 04:44:00,
2013-08-21 21:54:00,71.0,36.0,-100.00,NNE,22,5.0,11.0,28,0.00,,,0.00,2.000000,,2013-08-22 04:54:00,
2013-08-21 22:02:00,70.0,36.0,-100.00,NE,55,5.0,8.0,29,0.00,,,0.00,0.000000,,2013-08-22 05:02:00,
2013-08-21 22:23:00,70.0,36.0,-100.00,NE,55,5.0,8.0,29,0.00,,,0.00,0.000000,,2013-08-22 05:23:00,
2013-08-21 22:34:00,70.0,36.0,-100.00,NE,55,5.0,8.0,29,0.00,,,0.00,0.000000,,2013-08-22 05:34:00,
2013-08-21 22:43:00,70.0,36.0,-100.00,NE,55,5.0,8.0,29,0.00,,,0.00,0.000000,,2013-08-22 05:43:00,
2013-08-21 22:52:00,70.0,36.0,-100.00,NE,55,5.0,8.0,29,0.00,,,0.00,0.000000,,2013-08-22 05:52:00,
2013-08-21 23:02:00,69.0,35.0,-100.00,ENE,77,3.0,9.0,29,0.00,,,0.00,0.000000,,2013-08-22 06:02:00,
2013-08-21 23:42:00,69.0,35.0,-100.00,ENE,77,3.0,9.0,29,0.00,,,0.00,0.000000,,2013-08-22 06:42:00,
2013-08-21 23:52:00,69.0,35.0,-100.00,ENE,77,3.0,9.0,29,0.00,,,0.00,0.000000,,2013-08-22 06:52:00,